METEOR 2-5 DEB

Satellite information

Favourite Embed

Satellite Type and Status

DEBRISIN ORBIT

Key statistics

Satellite METEOR 2-5 DEB at a glance.

Uptime

16793

Days in orbit

Revolutions

≈ 14.4

Per day

Orbit

LEO

Low Earth Orbit

Inclination

81.2

Latest

Satellite identification and parameters

Extended collection of information and parameters for METEOR 2-5 DEB.

Object identification

Identified? True

Debris? True

Object name: METEOR 2-5 DEB

International designator: 1979-095K

Object number (NORAD): 28974

Object ID (CCSDS): 28974

Country: COMMONWEALTH OF INDEPENDENT STATES (CIS)

Current information (Y/N): Y

RCS size: SMALL

Orbital parameters

Period: 99.674 minutes

Inclination: 81.1955 deg

SMA: 7121.11 km

Apoapsis: 751.777 km

Periapsis: 734.173 km

RAAN: 338.5763 deg

Eccentricy: 0.001236

Argument of periapsis: 268.6822 deg

Mean anomaly: 91.2951 deg

Mean motion: 14.44711755 rev/day

Mean motion (dot): 0.00007717 rev/day2

B* drag term: 0.0022188 1/REarth

Two-line elements (TLE)

Creation date: Oct. 22, 2025, 12:16 a.m.

Reference frame: TEME

Reference center: EARTH

Epoch: Oct. 21, 2025, 7:49 p.m. UTC

TLE line 0: 0 METEOR 2-5 DEB

TLE line 1: 1 28974U 79095K 25294.82629662 .00007717 00000-0 22188-2 0 9998

TLE line 2: 2 28974 81.1955 338.5763 0012360 268.6822 91.2951 14.44711755 15790

Live tracking on map

Real-time ground track for satellite METEOR 2-5 DEB.

In-orbit conjunctions

A list of the most updated potential collisions computed for object METEOR 2-5 DEB.

Target Orbit TCA Probability of collision Miss distance Type
COSMOS 407 LEO 2024-12-11 04:17:23 0.0001299117 258.0 (m) PAYLOAD
NOAA 16 DEB SSO 2024-11-11 14:11:18 0.0001987592 157.0 (m) DEBRIS

Associated space launch

Second generation soviet meteorological satellite

METEOR 2-5 DEB was lifted into orbit during the mission ‘Vostok 8A92M | Meteor-2 5’, on board a Vostok 8A92M space rocket.

The launch took place on Oct. 31, 1979, 9:25 a.m. from 43/4 (43R).

For more information about the launch, click the button.

Launch to space Vostok 8A92M | Meteor-2 5
Vostok 8A92M | Meteor-2 5

Agency: N/A

Status: Launch Successful

Launch date: Oct. 31, 1979, 9:25 a.m. UTC

Rocket: Vostok 8A92M

Launch pad: 43/4 (43R)

Location: Plesetsk Cosmodrome, Russian Federation

...

Latest news about this satellite

There are no fresh news available about this satellite. Check back as we update our databases every day.


Newsletter sign-up

Weekly statistics, charts and insights to help you stay on top of the space industry.